TVS3NQ LKPR-LGKO

Flight info

Callsign TVS3NQ
Flight time 2h 26m
Altitude 37000
Route VOZ DCT LIKSA DCT PEPIK DCT KEROP DCT NISVA DCT NIKTI DCT MES UN139 OKORO N139 LURUS L995 KOPAR
Aircraft B738/M-SDFGHIJ1LORVWXYZ/LB1

Departure

Time 2026-05-05 14:47
Airport Václav Havel Airport Prague (LKPR)

Arrival

Time 2026-05-05 17:14
Airport Kos International Airport "Ippokratis" (LGKO)
Time Latitude Longitude Altitude Speed Heading
2026-05-05 14:01 50.10435 14.26582 1173 ft 0 kts 34°
2026-05-05 14:35 50.10423 14.26568 1170 ft 3 kts 49°
2026-05-05 14:35 50.10415 14.26548 1170 ft 2 kts 80°
2026-05-05 14:35 50.10416 14.26525 1169 ft 2 kts 109°
2026-05-05 14:36 50.10422 14.26503 1168 ft 2 kts 121°
2026-05-05 14:36 50.10428 14.26489 1168 ft 1 kts 123°
2026-05-05 14:36 50.10432 14.26478 1168 ft 1 kts 125°
2026-05-05 14:36 50.10437 14.26467 1169 ft 1 kts 125°
2026-05-05 14:37 50.10438 14.26466 1169 ft 0 kts 125°
2026-05-05 14:39 50.10437 14.26467 1173 ft 1 kts 125°
2026-05-05 14:39 50.10418 14.26509 1171 ft 10 kts 125°
2026-05-05 14:40 50.10378 14.26603 1172 ft 10 kts 123°
2026-05-05 14:40 50.10342 14.26612 1173 ft 5 kts 207°
2026-05-05 14:40 50.10311 14.26582 1170 ft 6 kts 213°
2026-05-05 14:40 50.10276 14.26544 1173 ft 6 kts 215°
2026-05-05 14:41 50.10234 14.26541 1174 ft 7 kts 152°
2026-05-05 14:41 50.10189 14.26619 1175 ft 12 kts 127°
2026-05-05 14:41 50.10135 14.26729 1177 ft 13 kts 128°
2026-05-05 14:41 50.10083 14.26838 1186 ft 12 kts 126°
2026-05-05 14:42 50.10032 14.26943 1193 ft 12 kts 127°
2026-05-05 14:42 50.09981 14.27047 1197 ft 12 kts 126°
2026-05-05 14:42 50.09933 14.27149 1199 ft 12 kts 126°
2026-05-05 14:42 50.09885 14.27248 1201 ft 11 kts 127°
2026-05-05 14:43 50.09834 14.27342 1202 ft 11 kts 134°
2026-05-05 14:43 50.09777 14.27428 1204 ft 11 kts 136°
2026-05-05 14:43 50.09712 14.27528 1205 ft 15 kts 135°
2026-05-05 14:43 50.09630 14.27654 1209 ft 17 kts 135°
2026-05-05 14:44 50.09547 14.27782 1211 ft 16 kts 135°
2026-05-05 14:44 50.09469 14.27905 1214 ft 16 kts 136°
2026-05-05 14:44 50.09392 14.28024 1214 ft 16 kts 136°
2026-05-05 14:44 50.09312 14.28144 1214 ft 16 kts 136°
2026-05-05 14:45 50.09228 14.28264 1211 ft 17 kts 147°
2026-05-05 14:45 50.09120 14.28240 1210 ft 17 kts 218°
2026-05-05 14:45 50.09064 14.28171 1208 ft 6 kts 227°
2026-05-05 14:45 50.09067 14.28115 1207 ft 6 kts 308°
2026-05-05 14:46 50.09073 14.28105 1207 ft 0 kts 309°
2026-05-05 14:46 50.09076 14.28098 1207 ft 3 kts 308°
2026-05-05 14:46 50.09148 14.27949 1210 ft 45 kts 307°
2026-05-05 14:46 50.09487 14.27250 1205 ft 115 kts 307°
2026-05-05 14:47 50.10094 14.26003 1193 ft 173 kts 308°
2026-05-05 14:47 50.10878 14.24370 1641 ft 191 kts 309°
2026-05-05 14:47 50.11565 14.22642 2636 ft 191 kts 285°
2026-05-05 14:47 50.11475 14.20580 3318 ft 203 kts 245°
2026-05-05 14:48 50.10462 14.18910 3615 ft 225 kts 203°
2026-05-05 14:48 50.08912 14.18710 3998 ft 234 kts 163°
2026-05-05 14:48 50.07372 14.19511 4548 ft 238 kts 161°
2026-05-05 14:48 50.05712 14.20245 4832 ft 261 kts 163°
2026-05-05 14:49 50.03921 14.20967 5486 ft 266 kts 165°
2026-05-05 14:49 50.02135 14.21641 6339 ft 265 kts 167°
2026-05-05 14:49 50.00302 14.22314 6872 ft 276 kts 167°
2026-05-05 14:49 49.98431 14.22944 7708 ft 271 kts 169°
2026-05-05 14:50 49.96603 14.23569 8583 ft 271 kts 168°
2026-05-05 14:50 49.94721 14.24237 9043 ft 282 kts 168°
2026-05-05 14:50 49.92859 14.24924 9971 ft 276 kts 167°
2026-05-05 14:50 49.90976 14.25616 10538 ft 284 kts 169°
2026-05-05 14:51 49.89006 14.26285 10890 ft 298 kts 169°
2026-05-05 14:51 49.86956 14.27155 11247 ft 315 kts 155°
2026-05-05 14:51 49.85199 14.29361 11444 ft 338 kts 129°
2026-05-05 14:51 49.83814 14.32341 12205 ft 338 kts 128°
2026-05-05 14:52 49.82442 14.35247 12945 ft 341 kts 128°
2026-05-05 14:52 49.80990 14.38245 13381 ft 352 kts 129°
2026-05-05 14:52 49.79501 14.41288 14030 ft 356 kts 129°
2026-05-05 14:52 49.77989 14.44395 14584 ft 362 kts 129°
2026-05-05 14:53 49.76492 14.47462 15330 ft 363 kts 129°
2026-05-05 14:53 49.74925 14.50634 15650 ft 376 kts 129°
2026-05-05 14:53 49.73374 14.53796 16893 ft 357 kts 129°
2026-05-05 14:53 49.71877 14.56827 17827 ft 357 kts 129°
2026-05-05 14:54 49.70323 14.59942 18029 ft 374 kts 130°
2026-05-05 14:54 49.68727 14.63130 18590 ft 376 kts 131°
2026-05-05 14:54 49.66978 14.66098 19064 ft 379 kts 137°
2026-05-05 14:54 49.65092 14.68988 19579 ft 383 kts 137°
2026-05-05 14:55 49.63160 14.71910 19947 ft 391 kts 137°
2026-05-05 14:55 49.61221 14.74885 20580 ft 391 kts 137°
2026-05-05 14:55 49.59323 14.77848 21370 ft 387 kts 137°
2026-05-05 14:55 49.57429 14.80828 21660 ft 397 kts 136°
2026-05-05 14:56 49.55492 14.83900 22068 ft 403 kts 136°
2026-05-05 14:56 49.53540 14.87046 22558 ft 406 kts 133°
2026-05-05 14:56 49.51958 14.90663 23197 ft 410 kts 119°
2026-05-05 14:56 49.50716 14.94624 23710 ft 411 kts 117°
2026-05-05 14:57 49.49490 14.98556 24085 ft 415 kts 118°
2026-05-05 14:57 49.48214 15.02581 24455 ft 418 kts 118°
2026-05-05 14:57 49.46922 15.06605 24845 ft 421 kts 118°
2026-05-05 14:57 49.45609 15.10669 25144 ft 427 kts 118°
2026-05-05 14:58 49.44290 15.14726 25463 ft 430 kts 118°
2026-05-05 14:58 49.42938 15.18858 25851 ft 433 kts 118°
2026-05-05 14:58 49.41572 15.23015 26231 ft 435 kts 118°
2026-05-05 14:58 49.40196 15.27187 26595 ft 438 kts 118°
2026-05-05 14:59 49.38808 15.31380 26951 ft 441 kts 118°
2026-05-05 14:59 49.37430 15.35537 27292 ft 443 kts 119°
2026-05-05 14:59 49.36027 15.39760 27627 ft 446 kts 119°
2026-05-05 14:59 49.34610 15.44022 27968 ft 448 kts 119°
2026-05-05 15:00 49.33189 15.48288 28312 ft 451 kts 118°
2026-05-05 15:00 49.32241 15.51131 28529 ft 452 kts 119°
2026-05-05 15:00 49.30316 15.56892 28951 ft 455 kts 119°
2026-05-05 15:00 49.28862 15.61233 29265 ft 458 kts 119°
2026-05-05 15:01 49.27404 15.65583 29571 ft 460 kts 119°
2026-05-05 15:01 49.25952 15.69904 29876 ft 462 kts 119°
2026-05-05 15:01 49.24475 15.74294 30149 ft 464 kts 119°
2026-05-05 15:01 49.22993 15.78691 30424 ft 465 kts 119°
2026-05-05 15:02 49.21506 15.83097 30707 ft 466 kts 119°
2026-05-05 15:02 49.20031 15.87461 31063 ft 465 kts 119°
2026-05-05 15:02 49.18548 15.91842 31450 ft 463 kts 119°
2026-05-05 15:02 49.17064 15.96219 31798 ft 462 kts 119°
2026-05-05 15:03 49.15581 16.00579 32103 ft 462 kts 119°
2026-05-05 15:03 49.14091 16.04952 32398 ft 462 kts 119°
2026-05-05 15:03 49.12623 16.09250 32719 ft 461 kts 119°
2026-05-05 15:03 49.11137 16.13592 33065 ft 460 kts 119°
2026-05-05 15:04 49.09646 16.17945 33367 ft 460 kts 120°
2026-05-05 15:04 49.08163 16.22268 33644 ft 460 kts 120°
2026-05-05 15:04 49.06695 16.26541 33925 ft 459 kts 120°
2026-05-05 15:04 49.05208 16.30863 34194 ft 458 kts 120°
2026-05-05 15:05 49.02229 16.39499 34625 ft 459 kts 120°
2026-05-05 15:05 49.00760 16.43745 34848 ft 458 kts 120°
2026-05-05 15:05 48.99271 16.48046 35084 ft 458 kts 120°
2026-05-05 15:06 48.97781 16.52341 35295 ft 458 kts 120°
2026-05-05 15:06 48.96288 16.56636 35504 ft 458 kts 120°
2026-05-05 15:06 48.94815 16.60867 35720 ft 457 kts 120°
2026-05-05 15:06 48.93325 16.65141 35924 ft 457 kts 120°
2026-05-05 15:07 48.91831 16.69419 36112 ft 457 kts 120°
2026-05-05 15:07 48.90334 16.73699 36296 ft 458 kts 120°
2026-05-05 15:07 48.88833 16.77982 36482 ft 458 kts 120°
2026-05-05 15:07 48.87335 16.82251 36678 ft 457 kts 120°
2026-05-05 15:08 48.85838 16.86510 36771 ft 457 kts 120°
2026-05-05 15:08 48.82839 16.95023 36769 ft 459 kts 120°
2026-05-05 15:09 48.79801 17.03508 36778 ft 457 kts 125°
2026-05-05 15:09 48.75697 17.10750 36783 ft 449 kts 143°
2026-05-05 15:10 48.70675 17.16223 36788 ft 446 kts 148°
2026-05-05 15:10 48.65560 17.21553 36787 ft 446 kts 148°
2026-05-05 15:11 48.60445 17.26925 36803 ft 447 kts 148°
2026-05-05 15:11 48.55367 17.32292 36810 ft 447 kts 148°
2026-05-05 15:12 48.50263 17.37691 36806 ft 448 kts 148°
2026-05-05 15:12 48.46001 17.42192 36816 ft 448 kts 148°
2026-05-05 15:13 48.40052 17.48457 36822 ft 449 kts 148°
2026-05-05 15:13 48.35782 17.52942 36823 ft 449 kts 148°
2026-05-05 15:14 48.30645 17.58327 36831 ft 450 kts 148°
2026-05-05 15:14 48.25501 17.63704 36836 ft 450 kts 148°
2026-05-05 15:15 48.20381 17.69044 36844 ft 451 kts 148°
2026-05-05 15:15 48.15223 17.74405 36853 ft 451 kts 148°
2026-05-05 15:16 48.10057 17.79766 36864 ft 451 kts 148°
2026-05-05 15:16 48.04913 17.85088 36862 ft 451 kts 148°
2026-05-05 15:17 47.99744 17.90426 36870 ft 451 kts 148°
2026-05-05 15:17 47.94582 17.95743 36873 ft 451 kts 148°
2026-05-05 15:18 47.89409 18.01058 36880 ft 451 kts 148°
2026-05-05 15:18 47.84228 18.06365 36882 ft 450 kts 148°
2026-05-05 15:19 47.79079 18.11627 36887 ft 450 kts 148°
2026-05-05 15:19 47.73901 18.16908 36887 ft 450 kts 148°
2026-05-05 15:20 47.68767 18.22128 36893 ft 450 kts 148°
2026-05-05 15:20 47.63588 18.27383 36899 ft 450 kts 148°
2026-05-05 15:21 47.58421 18.32614 36901 ft 449 kts 148°
2026-05-05 15:21 47.53278 18.37808 36908 ft 449 kts 148°
2026-05-05 15:22 47.48098 18.43027 36909 ft 450 kts 148°
2026-05-05 15:22 47.42907 18.48244 36911 ft 450 kts 148°
2026-05-05 15:23 47.37736 18.53425 36914 ft 450 kts 148°
2026-05-05 15:23 47.32570 18.58590 36915 ft 450 kts 148°
2026-05-05 15:24 47.27358 18.63790 36907 ft 451 kts 148°
2026-05-05 15:24 47.22189 18.68935 36914 ft 450 kts 148°
2026-05-05 15:25 47.16982 18.74105 36912 ft 451 kts 148°
2026-05-05 15:25 47.11803 18.79234 36916 ft 451 kts 148°
2026-05-05 15:26 47.06587 18.84388 36918 ft 451 kts 148°
2026-05-05 15:26 47.01405 18.89496 36913 ft 451 kts 148°
2026-05-05 15:27 46.96183 18.94632 36912 ft 451 kts 148°
2026-05-05 15:27 46.90993 18.99723 36912 ft 450 kts 148°
2026-05-05 15:28 46.85782 19.04823 36913 ft 450 kts 148°
2026-05-05 15:28 46.80594 19.09889 36912 ft 450 kts 148°
2026-05-05 15:29 46.75379 19.14969 36915 ft 450 kts 148°
2026-05-05 15:29 46.70161 19.20040 36915 ft 450 kts 148°
2026-05-05 15:30 46.64971 19.25071 36914 ft 450 kts 148°
2026-05-05 15:30 46.59782 19.30090 36917 ft 450 kts 148°
2026-05-05 15:31 46.54558 19.35131 36916 ft 450 kts 148°
2026-05-05 15:31 46.49358 19.40137 36918 ft 450 kts 148°
2026-05-05 15:32 46.44129 19.45159 36920 ft 450 kts 148°
2026-05-05 15:32 46.38919 19.50152 36921 ft 450 kts 148°
2026-05-05 15:33 46.33677 19.55164 36925 ft 450 kts 148°
2026-05-05 15:33 46.28436 19.60164 36925 ft 451 kts 148°
2026-05-05 15:34 46.23208 19.65141 36926 ft 451 kts 148°
2026-05-05 15:34 46.17981 19.70107 36922 ft 451 kts 147°
2026-05-05 15:35 46.12816 19.75325 36928 ft 452 kts 146°
2026-05-05 15:35 46.07740 19.80631 36927 ft 452 kts 145°
2026-05-05 15:36 46.02630 19.85942 36929 ft 453 kts 146°
2026-05-05 15:36 45.97504 19.91220 36933 ft 453 kts 146°
2026-05-05 15:37 45.92369 19.96478 36933 ft 453 kts 146°
2026-05-05 15:37 45.87253 20.01701 36934 ft 453 kts 146°
2026-05-05 15:38 45.82103 20.06947 36932 ft 453 kts 146°
2026-05-05 15:38 45.76972 20.12163 36934 ft 453 kts 146°
2026-05-05 15:39 45.71800 20.17409 36937 ft 454 kts 146°
2026-05-05 15:39 45.66667 20.22603 36935 ft 454 kts 146°
2026-05-05 15:40 45.61497 20.27823 36937 ft 454 kts 146°
2026-05-05 15:40 45.56354 20.33003 36940 ft 454 kts 146°
2026-05-05 15:41 45.51175 20.38208 36942 ft 454 kts 146°
2026-05-05 15:41 45.45994 20.43403 36951 ft 455 kts 146°
2026-05-05 15:42 45.40842 20.48556 36944 ft 455 kts 146°
2026-05-05 15:42 45.35649 20.53739 36942 ft 455 kts 146°
2026-05-05 15:43 45.30482 20.58884 36949 ft 455 kts 146°
2026-05-05 15:43 45.25284 20.64049 36945 ft 456 kts 146°
2026-05-05 15:44 45.20073 20.69215 36952 ft 456 kts 146°
2026-05-05 15:44 45.14862 20.74368 36952 ft 456 kts 146°
2026-05-05 15:45 45.09674 20.79488 36951 ft 457 kts 146°
2026-05-05 15:45 45.04448 20.84634 36955 ft 457 kts 146°
2026-05-05 15:46 44.99217 20.89772 36951 ft 457 kts 146°
2026-05-05 15:46 44.94014 20.94871 36954 ft 458 kts 146°
2026-05-05 15:47 44.88787 20.99982 36953 ft 458 kts 146°
2026-05-05 15:47 44.83527 21.05115 36955 ft 458 kts 146°
2026-05-05 15:48 44.78308 21.10196 36947 ft 459 kts 146°
2026-05-05 15:48 44.73048 21.15305 36957 ft 459 kts 146°
2026-05-05 15:49 44.67777 21.20413 36957 ft 460 kts 146°
2026-05-05 15:49 44.62495 21.25521 36966 ft 460 kts 146°
2026-05-05 15:50 44.57236 21.30595 36963 ft 461 kts 146°
2026-05-05 15:50 44.51943 21.35689 36968 ft 461 kts 146°
2026-05-05 15:51 44.46654 21.40769 36974 ft 461 kts 146°
2026-05-05 15:51 44.41369 21.45834 36967 ft 462 kts 146°
2026-05-05 15:52 44.36048 21.50922 36977 ft 462 kts 146°
2026-05-05 15:52 44.30745 21.55981 36973 ft 463 kts 146°
2026-05-05 15:53 44.25419 21.61052 36988 ft 463 kts 146°
2026-05-05 15:53 44.20123 21.66082 36979 ft 463 kts 146°
2026-05-05 15:54 44.14782 21.71143 36982 ft 463 kts 146°
2026-05-05 15:54 44.09444 21.76191 36981 ft 464 kts 146°
2026-05-05 15:55 44.04130 21.81205 36984 ft 464 kts 146°
2026-05-05 15:55 43.98771 21.86250 36995 ft 464 kts 146°
2026-05-05 15:56 43.93442 21.91255 36989 ft 464 kts 146°
2026-05-05 15:56 43.88076 21.96284 36984 ft 464 kts 146°
2026-05-05 15:57 43.82751 22.01265 36996 ft 465 kts 146°
2026-05-05 15:57 43.77377 22.06279 36981 ft 465 kts 146°
2026-05-05 15:58 43.72016 22.11271 36996 ft 466 kts 146°
2026-05-05 15:58 43.66611 22.16292 36990 ft 467 kts 146°
2026-05-05 15:59 43.61239 22.21272 36997 ft 467 kts 146°
2026-05-05 15:59 43.55825 22.26280 36997 ft 468 kts 146°
2026-05-05 16:00 43.50441 22.31249 36998 ft 468 kts 146°
2026-05-05 16:00 43.45036 22.36227 37004 ft 469 kts 147°
2026-05-05 16:01 43.39605 22.41217 36996 ft 469 kts 147°
2026-05-05 16:01 43.34173 22.46198 37011 ft 469 kts 147°
2026-05-05 16:02 43.29658 22.50330 37007 ft 469 kts 147°
2026-05-05 16:02 43.23328 22.56110 37014 ft 469 kts 147°
2026-05-05 16:03 43.18796 22.60239 37016 ft 469 kts 147°
2026-05-05 16:03 43.13340 22.65201 37016 ft 470 kts 147°
2026-05-05 16:04 43.07913 22.70126 37030 ft 470 kts 147°
2026-05-05 16:04 43.02447 22.75077 37013 ft 470 kts 147°
2026-05-05 16:05 42.97010 22.79991 37035 ft 470 kts 146°
2026-05-05 16:05 42.91602 22.85065 37015 ft 470 kts 145°
2026-05-05 16:06 42.86277 22.90177 37029 ft 470 kts 145°
2026-05-05 16:06 42.80903 22.95315 37024 ft 471 kts 145°
2026-05-05 16:07 42.75547 23.00401 37027 ft 471 kts 145°
2026-05-05 16:07 42.70144 23.05509 37031 ft 471 kts 145°
2026-05-05 16:08 42.64780 23.10568 37026 ft 471 kts 145°
2026-05-05 16:08 42.59378 23.15652 37027 ft 472 kts 145°
2026-05-05 16:09 42.53990 23.20714 37026 ft 472 kts 145°
2026-05-05 16:09 42.48585 23.25781 37029 ft 472 kts 145°
2026-05-05 16:10 42.43173 23.30843 37041 ft 472 kts 145°
2026-05-05 16:10 42.37784 23.35873 37043 ft 472 kts 145°
2026-05-05 16:11 42.32362 23.40924 37056 ft 472 kts 145°
2026-05-05 16:12 42.21546 23.50966 37059 ft 472 kts 145°
2026-05-05 16:13 42.07998 23.63486 37047 ft 473 kts 145°
2026-05-05 16:13 42.02562 23.68490 37056 ft 472 kts 145°
2026-05-05 16:14 41.91706 23.78453 37047 ft 473 kts 145°
2026-05-05 16:15 41.80832 23.88391 37046 ft 474 kts 145°
2026-05-05 16:16 41.69938 23.98307 37036 ft 474 kts 146°
2026-05-05 16:17 41.61735 24.05748 37028 ft 474 kts 146°
2026-05-05 16:18 41.53479 24.12939 37015 ft 473 kts 155°
2026-05-05 16:19 41.44388 24.18127 37024 ft 472 kts 158°
2026-05-05 16:19 41.35327 24.23157 37030 ft 472 kts 158°
2026-05-05 16:20 41.23208 24.30003 37025 ft 473 kts 157°
2026-05-05 16:22 41.08082 24.38533 37038 ft 474 kts 158°
2026-05-05 16:23 40.95953 24.45337 37051 ft 475 kts 158°
2026-05-05 16:24 40.80293 24.54082 37045 ft 476 kts 158°
2026-05-05 16:25 40.71144 24.59169 37052 ft 476 kts 158°
2026-05-05 16:25 40.61964 24.64259 37038 ft 478 kts 158°
2026-05-05 16:26 40.49707 24.71032 37035 ft 477 kts 158°
2026-05-05 16:27 40.43623 24.74384 37032 ft 477 kts 158°
2026-05-05 16:27 40.37508 24.77746 37034 ft 476 kts 158°
2026-05-05 16:28 40.31391 24.81102 37028 ft 476 kts 158°
2026-05-05 16:28 40.25289 24.84444 37033 ft 475 kts 158°
2026-05-05 16:29 40.19187 24.87779 37034 ft 475 kts 158°
2026-05-05 16:29 40.13086 24.91107 37041 ft 475 kts 158°
2026-05-05 16:30 40.06990 24.94426 37038 ft 475 kts 158°
2026-05-05 16:30 40.00934 24.97717 37048 ft 475 kts 158°
2026-05-05 16:31 39.94835 25.01025 37044 ft 475 kts 158°
2026-05-05 16:31 39.88737 25.04326 37051 ft 475 kts 158°
2026-05-05 16:32 39.83662 25.07068 37045 ft 475 kts 158°
2026-05-05 16:32 39.77552 25.10363 37048 ft 476 kts 158°
2026-05-05 16:33 39.71434 25.13657 37045 ft 476 kts 158°
2026-05-05 16:33 39.65314 25.16946 37050 ft 476 kts 158°
2026-05-05 16:34 39.59189 25.20230 37044 ft 476 kts 158°
2026-05-05 16:34 39.53101 25.23488 37046 ft 476 kts 158°
2026-05-05 16:35 39.46973 25.26763 37044 ft 477 kts 158°
2026-05-05 16:35 39.40846 25.30030 37049 ft 477 kts 158°
2026-05-05 16:36 39.34713 25.33293 37035 ft 476 kts 158°
2026-05-05 16:36 39.28580 25.36551 37045 ft 476 kts 158°
2026-05-05 16:37 39.22454 25.39799 37047 ft 476 kts 158°
2026-05-05 16:37 39.16365 25.43021 37044 ft 476 kts 158°
2026-05-05 16:38 39.10236 25.46258 37046 ft 476 kts 158°
2026-05-05 16:38 39.04109 25.49488 37047 ft 476 kts 158°
2026-05-05 16:39 39.01034 25.51122 36833 ft 480 kts 158°
2026-05-05 16:39 38.97970 25.52805 36571 ft 478 kts 157°
2026-05-05 16:39 38.94940 25.54501 36309 ft 472 kts 156°
2026-05-05 16:39 38.91950 25.56183 36052 ft 465 kts 156°
2026-05-05 16:40 38.89005 25.57839 35795 ft 461 kts 156°
2026-05-05 16:40 38.86074 25.59479 35535 ft 455 kts 156°
2026-05-05 16:40 38.83188 25.61089 35289 ft 451 kts 156°
2026-05-05 16:40 38.80347 25.62667 35074 ft 450 kts 156°
2026-05-05 16:41 38.77480 25.64257 34832 ft 449 kts 156°
2026-05-05 16:41 38.74621 25.65839 34602 ft 448 kts 156°
2026-05-05 16:41 38.71763 25.67419 34367 ft 447 kts 156°
2026-05-05 16:41 38.68909 25.68995 34140 ft 446 kts 156°
2026-05-05 16:42 38.66059 25.70568 33884 ft 446 kts 156°
2026-05-05 16:42 38.63214 25.72137 33613 ft 445 kts 156°
2026-05-05 16:42 38.60374 25.73702 33345 ft 444 kts 156°
2026-05-05 16:42 38.57543 25.75260 33080 ft 443 kts 155°
2026-05-05 16:43 38.54718 25.76814 32812 ft 441 kts 155°
2026-05-05 16:43 38.51899 25.78364 32552 ft 440 kts 155°
2026-05-05 16:43 38.49095 25.79903 32290 ft 438 kts 155°
2026-05-05 16:43 38.46339 25.81415 32039 ft 436 kts 155°
2026-05-05 16:44 38.43564 25.82937 31782 ft 434 kts 155°
2026-05-05 16:44 38.40800 25.84450 31528 ft 431 kts 155°
2026-05-05 16:44 38.38051 25.85955 31275 ft 429 kts 155°
2026-05-05 16:44 38.35317 25.87450 31031 ft 426 kts 154°
2026-05-05 16:45 38.32595 25.88937 30782 ft 424 kts 154°
2026-05-05 16:45 38.29892 25.90413 30541 ft 422 kts 154°
2026-05-05 16:45 38.27201 25.91881 30300 ft 420 kts 154°
2026-05-05 16:45 38.24519 25.93343 30051 ft 418 kts 154°
2026-05-05 16:46 38.21852 25.94796 29765 ft 416 kts 154°
2026-05-05 16:46 38.19197 25.96241 29488 ft 414 kts 154°
2026-05-05 16:46 38.16587 25.97661 29214 ft 413 kts 154°
2026-05-05 16:46 38.13953 25.99092 28941 ft 411 kts 154°
2026-05-05 16:47 38.11323 26.00520 28673 ft 410 kts 154°
2026-05-05 16:47 38.08702 26.01943 28398 ft 409 kts 154°
2026-05-05 16:47 38.06091 26.03358 28130 ft 407 kts 154°
2026-05-05 16:47 38.03520 26.04749 27815 ft 398 kts 154°
2026-05-05 16:48 38.00986 26.06120 27475 ft 394 kts 154°
2026-05-05 16:48 37.98467 26.07483 27124 ft 392 kts 154°
2026-05-05 16:48 37.95972 26.08831 26764 ft 389 kts 155°
2026-05-05 16:48 37.93488 26.10173 26415 ft 387 kts 155°
2026-05-05 16:49 37.91019 26.11506 26068 ft 384 kts 155°
2026-05-05 16:49 37.88601 26.12810 25725 ft 382 kts 155°
2026-05-05 16:49 37.86159 26.14126 25386 ft 380 kts 155°
2026-05-05 16:49 37.83729 26.15435 25050 ft 379 kts 155°
2026-05-05 16:50 37.81309 26.16738 24714 ft 377 kts 155°
2026-05-05 16:50 37.78899 26.18034 24376 ft 376 kts 155°
2026-05-05 16:50 37.76496 26.19325 24038 ft 374 kts 155°
2026-05-05 16:50 37.74103 26.20610 23707 ft 373 kts 155°
2026-05-05 16:51 37.71717 26.21891 23322 ft 372 kts 155°
2026-05-05 16:51 37.69338 26.23167 22954 ft 371 kts 156°
2026-05-05 16:51 37.66968 26.24437 22585 ft 369 kts 156°
2026-05-05 16:51 37.64613 26.25697 22261 ft 366 kts 156°
2026-05-05 16:52 37.62302 26.26934 21918 ft 365 kts 156°
2026-05-05 16:52 37.59975 26.28178 21589 ft 362 kts 156°
2026-05-05 16:52 37.57662 26.29414 21252 ft 360 kts 156°
2026-05-05 16:52 37.55361 26.30643 20923 ft 358 kts 156°
2026-05-05 16:53 37.53070 26.31865 20593 ft 357 kts 156°
2026-05-05 16:53 37.50790 26.33081 20265 ft 355 kts 156°
2026-05-05 16:53 37.48515 26.34294 19940 ft 354 kts 156°
2026-05-05 16:53 37.46250 26.35500 19619 ft 353 kts 156°
2026-05-05 16:54 37.43993 26.36702 19286 ft 352 kts 156°
2026-05-05 16:54 37.41738 26.37901 18965 ft 351 kts 156°
2026-05-05 16:54 37.39492 26.39095 18636 ft 351 kts 156°
2026-05-05 16:54 37.37275 26.40273 18311 ft 350 kts 156°
2026-05-05 16:55 37.35030 26.41465 17940 ft 350 kts 156°
2026-05-05 16:55 37.32793 26.42652 17583 ft 349 kts 156°
2026-05-05 16:55 37.30563 26.43834 17251 ft 347 kts 156°
2026-05-05 16:55 37.28343 26.45010 16918 ft 345 kts 156°
2026-05-05 16:56 37.26136 26.46178 16595 ft 344 kts 156°
2026-05-05 16:56 37.23939 26.47341 16266 ft 342 kts 156°
2026-05-05 16:56 37.21751 26.48498 15951 ft 340 kts 156°
2026-05-05 16:56 37.19574 26.49649 15630 ft 339 kts 156°
2026-05-05 16:57 37.17407 26.50793 15309 ft 338 kts 156°
2026-05-05 16:57 37.15245 26.51935 14997 ft 336 kts 156°
2026-05-05 16:57 37.13093 26.53070 14678 ft 335 kts 155°
2026-05-05 16:57 37.10948 26.54201 14367 ft 334 kts 155°
2026-05-05 16:58 37.08839 26.55312 14040 ft 333 kts 155°
2026-05-05 16:58 37.06702 26.56437 13721 ft 332 kts 155°
2026-05-05 16:58 37.04575 26.57557 13365 ft 331 kts 156°
2026-05-05 16:58 37.02455 26.58672 13032 ft 330 kts 156°
2026-05-05 16:59 37.00343 26.59782 12699 ft 328 kts 156°
2026-05-05 16:59 36.98245 26.60885 12379 ft 327 kts 156°
2026-05-05 16:59 36.96153 26.61983 12072 ft 325 kts 156°
2026-05-05 16:59 36.94078 26.63072 11748 ft 323 kts 157°
2026-05-05 17:00 36.92010 26.64157 11438 ft 321 kts 157°
2026-05-05 17:00 36.90012 26.65379 11022 ft 323 kts 142°
2026-05-05 17:00 36.88464 26.67383 10675 ft 319 kts 126°
2026-05-05 17:00 36.87115 26.69539 10301 ft 320 kts 125°
2026-05-05 17:01 36.85774 26.71727 10132 ft 313 kts 125°
2026-05-05 17:01 36.84457 26.73860 9923 ft 308 kts 126°
2026-05-05 17:01 36.83139 26.75967 9591 ft 308 kts 126°
2026-05-05 17:01 36.81818 26.78058 9288 ft 306 kts 126°
2026-05-05 17:02 36.80499 26.80129 8987 ft 304 kts 127°
2026-05-05 17:02 36.79188 26.82176 8662 ft 298 kts 127°
2026-05-05 17:02 36.77912 26.84161 8383 ft 289 kts 126°
2026-05-05 17:02 36.76667 26.86094 8102 ft 282 kts 126°
2026-05-05 17:03 36.75455 26.87972 7824 ft 275 kts 126°
2026-05-05 17:03 36.74268 26.89812 7553 ft 271 kts 126°
2026-05-05 17:03 36.73095 26.91631 7285 ft 267 kts 126°
2026-05-05 17:03 36.71935 26.93425 7031 ft 264 kts 125°
2026-05-05 17:04 36.70789 26.95199 6767 ft 261 kts 125°
2026-05-05 17:04 36.69653 26.96952 6494 ft 259 kts 125°
2026-05-05 17:04 36.68550 26.98658 6253 ft 254 kts 125°
2026-05-05 17:04 36.67447 27.00362 5993 ft 251 kts 125°
2026-05-05 17:05 36.66362 27.02037 5777 ft 245 kts 125°
2026-05-05 17:05 36.65325 27.03635 5716 ft 233 kts 124°
2026-05-05 17:05 36.64308 27.05205 5578 ft 231 kts 124°
2026-05-05 17:05 36.63321 27.06725 5461 ft 219 kts 124°
2026-05-05 17:06 36.62391 27.08153 5346 ft 206 kts 123°
2026-05-05 17:06 36.61503 27.09520 5295 ft 200 kts 123°
2026-05-05 17:06 36.60628 27.10868 5196 ft 202 kts 123°
2026-05-05 17:06 36.59783 27.12268 5021 ft 200 kts 110°
2026-05-05 17:07 36.59598 27.13870 4900 ft 179 kts 70°
2026-05-05 17:07 36.59963 27.15325 4729 ft 177 kts 62°
2026-05-05 17:07 36.60398 27.16737 4558 ft 176 kts 60°
2026-05-05 17:07 36.60835 27.18150 4385 ft 175 kts 60°
2026-05-05 17:08 36.61273 27.19560 4189 ft 174 kts 60°
2026-05-05 17:08 36.61812 27.20867 3967 ft 163 kts 37°
2026-05-05 17:08 36.62733 27.21439 3841 ft 144 kts
2026-05-05 17:08 36.63692 27.21291 3711 ft 141 kts 336°
2026-05-05 17:09 36.64534 27.20656 3516 ft 141 kts 331°
2026-05-05 17:09 36.65359 27.20035 3332 ft 137 kts 330°
2026-05-05 17:09 36.66158 27.19424 3150 ft 132 kts 330°
2026-05-05 17:09 36.66925 27.18834 2984 ft 128 kts 330°
2026-05-05 17:10 36.67677 27.18251 2873 ft 129 kts 330°
2026-05-05 17:10 36.68433 27.17664 2813 ft 126 kts 330°
2026-05-05 17:10 36.69192 27.17073 2791 ft 130 kts 330°
2026-05-05 17:10 36.69954 27.16501 2599 ft 130 kts 332°
2026-05-05 17:11 36.70721 27.15918 2393 ft 128 kts 330°
2026-05-05 17:11 36.71463 27.15326 2217 ft 127 kts 330°
2026-05-05 17:11 36.72219 27.14728 1960 ft 130 kts 330°
2026-05-05 17:11 36.72994 27.14162 1790 ft 128 kts 332°
2026-05-05 17:12 36.73759 27.13612 1648 ft 126 kts 330°
2026-05-05 17:12 36.74500 27.13013 1457 ft 128 kts 327°
2026-05-05 17:12 36.75253 27.12382 1259 ft 133 kts 327°
2026-05-05 17:12 36.76061 27.11762 1087 ft 139 kts 328°
2026-05-05 17:13 36.76861 27.11135 879 ft 135 kts 327°
2026-05-05 17:13 36.77657 27.10507 672 ft 138 kts 327°
2026-05-05 17:13 36.78486 27.09868 468 ft 138 kts 327°
2026-05-05 17:13 36.79233 27.09290 406 ft 105 kts 327°
2026-05-05 17:14 36.79717 27.08911 410 ft 71 kts 328°
2026-05-05 17:14 36.80085 27.08625 410 ft 44 kts 328°
2026-05-05 17:14 36.80292 27.08464 416 ft 23 kts 330°
2026-05-05 17:14 36.80351 27.08483 418 ft 8 kts 70°
2026-05-05 17:15 36.80347 27.08552 416 ft 8 kts 102°
2026-05-05 17:15 36.80336 27.08617 420 ft 7 kts 102°
2026-05-05 17:15 36.80320 27.08670 411 ft 7 kts 120°
2026-05-05 17:15 36.80287 27.08708 416 ft 7 kts 148°
2026-05-05 17:16 36.80247 27.08738 411 ft 7 kts 148°
2026-05-05 17:16 36.80209 27.08769 417 ft 6 kts 147°
2026-05-05 17:16 36.80171 27.08799 413 ft 6 kts 147°
2026-05-05 17:16 36.80145 27.08819 418 ft 4 kts 149°
2026-05-05 17:17 36.80121 27.08836 412 ft 4 kts 150°
2026-05-05 17:17 36.80099 27.08854 418 ft 4 kts 146°
2026-05-05 17:17 36.80085 27.08865 415 ft 0 kts 147°
2026-05-05 17:17 36.80081 27.08868 415 ft 2 kts 147°
2026-05-05 17:18 36.80075 27.08885 418 ft 2 kts 81°
2026-05-05 17:18 36.80083 27.08897 410 ft 2 kts 57°
2026-05-05 17:18 36.80094 27.08920 415 ft 4 kts 58°
2026-05-05 17:18 36.80108 27.08947 412 ft 2 kts 58°
2026-05-05 17:19 36.80112 27.08954 414 ft 0 kts 58°